TIANWANG 1C (TW-1C)
1 40926U 15051B   17357.40729277  .00008165  00000-0  16726-3 0  9999
2 40926  97.2062  35.6849 0009824 191.9235 293.4387 15.46290084126124
TIANWANG 1B (TW-1B)
1 40927U 15051C   17357.48337089  .00008094  00000-0  17254-3 0  9992
2 40927  97.2159  35.6886 0009809 201.1398 267.0434 15.45124739126065
TIANWANG 1A (TW-1A)
1 40928U 15051D   17357.37069927  .00003063  00000-0  84931-4 0  9992
2 40928  97.2064  29.7439 0010710 231.2779 250.4371 15.37644438125754
LAPAN A2
1 40931U 15052B   17356.29305946  .00000586  00000-0 -76023-5 0  9993
2 40931   6.0022 331.4691 0014322  24.7278 335.3707 14.76558637120810
LQSAT
1 40958U 15057A   17357.43387036  .00000067  00000-0  18142-4 0  9994
2 40958  97.9614  69.2692 0018233 175.4392 184.6982 14.73008383118977
CHUBUSAT 2
1 41338U 16012B   17356.43105707  .00000376  00000-0  22756-4 0  9990
2 41338  31.0046 356.5836 0013891 123.2074 236.9895 14.99892535101270
CHUBUSAT 3
1 41339U 16012C   17357.39881614  .00000381  00000-0  23049-4 0  9997
2 41339  31.0107 349.2880 0013655 139.3317 220.8341 15.00086834101406
OUFTI-1
1 41458U 16025C   17357.17572133  .00001217  00000-0  67950-4 0  9990
2 41458  98.1614  45.4563 0172149  18.1023 342.6235 15.04077772 90979
E-STAR-2
1 41459U 16025D   17357.08730393  .00002219  00000-0  12047-3 0  9994
2 41459  98.1624  45.2642 0172691  18.7486 342.0008 15.03854726 90959
AAUSAT 4
1 41460U 16025E   17357.08754875  .00002838  00000-0  15179-3 0  9993
2 41460  98.1565  45.5249 0164607  16.0138 344.6221 15.05069008 90996
NUSAT 1
1 41557U 16033B   17357.21340886  .00001457  00000-0  56217-4 0  9992
2 41557  97.4504  76.6813 0015372  63.2637 297.0173 15.27847838 87286
BEESAT 4
1 41619U 16040W   17356.72374906 +.00001622 +00000-0 +74862-4 0  9994
2 41619 097.4398 057.1364 0013158 124.9215 235.3259 15.21588797071258
PRATHAM
1 41783U 16059A   17357.14973567  .00000065  00000-0  22207-4 0  9997
2 41783  98.1436  56.3236 0032377 288.8413  70.9278 14.62889194 66228
ALSAT 1N
1 41789U 16059G   17357.45969846  .00000143  00000-0  36298-4 0  9994
2 41789  98.1442  57.4996 0026992 279.8244  80.0008 14.64113353 66305
NAYIF 1
1 42017U 17008BX  17356.88552992 +.00001709 +00000-0 +73844-4 0  9997
2 42017 097.4726 057.8271 0004950 282.3946 077.6737 15.23866874047214
LILACSAT-1
1 42725U 98067ME  17356.91989218  .00015459  00000-0  17936-3 0  9992
2 42725  51.6366 171.8365 0004618 281.8047  78.2429 15.61977446 32905
MAX VALIER SAT
1 42778U 17036P   17356.81528531  .00001100  00000-0  52795-4 0  9994
2 42778  97.4288  54.2517 0011873 333.9196  26.1440 15.20925238 27694
